NORTHEAST SUFFOLK  -  Winter Weather Advisory Winter Weather Advisory        NORTHERN NASSAU  -  Winter Weather Advisory Winter Weather Advisory        NORTHWEST SUFFOLK  -  Winter Weather Advisory Winter Weather Advisory        SOUTHEAST SUFFOLK  -  Winter Weather Advisory Winter Weather Advisory        SOUTHERN NASSAU  -  Winter Weather Advisory Winter Weather Advisory        SOUTHWEST SUFFOLK  -  Winter Weather Advisory Winter Weather Advisory      

Active alerts

Northern Nassau
  Details for Northern Nassau Winter Weather Advisory
Southern Nassau
  Details for Southern Nassau Winter Weather Advisory
Northwest Suffolk
  Details for Northwest Suffolk Winter Weather Advisory
Southwest Suffolk
  Details for Southwest Suffolk Winter Weather Advisory
Northeast Suffolk
  Details for Northeast Suffolk Winter Weather Advisory
Southeast Suffolk
  Details for Southeast Suffolk Winter Weather Advisory


WXM80 ListenWXM80 Stop

You find our weather info also at:

UK Metoffice

WeatherCloud

Weather Underground

Northeastern Weather Network

AWEKAS

Citizen Weather Observer Program (CWOP)

HAMweather, WeatherForYou, PWS Weather


Weather Underground History page Text

Daily Summary for February 23, 2016 Units:  English    Metric   Both
« Previous Day
Next Day »
Daily Weekly Monthly Yearly Custom
  High: Low: Average:
Temperature: 39.4 °F 35.1 °F 36.9 °F
Dew Point: 36.2 °F 24.2 °F 33.6 °F
Humidity: 96 % 61 % 88 %
Wind Speed: 16.8 mph 2.5 mph 10.2 mph
Wind Gust: 26.5 mph - -
Wind:- - ENE
Pressure: 30.32 in 30.18 in -
Precipitation: 0.10 in    
Historical Graphs
 
 
Tabular Data for February 23, 2016
Time Temperature Dew Point Pressure Wind Wind Speed Wind Gust Humidity Rainfall Rate (Hourly)
00:02 36.2 °F 27.7 °F 30.27 in ENE 2.7 mph 4.0 mph 71 % 0.00 in
00:07 36.2 °F 26.3 °F 30.27 in East 3.8 mph 5.0 mph 67 % 0.00 in
00:13 36.3 °F 25.3 °F 30.27 in ENE 4.7 mph 7.0 mph 64 % 0.00 in
00:18 36.4 °F 25.4 °F 30.27 in ENE 2.5 mph 4.6 mph 64 % 0.00 in
00:23 36.4 °F 25.0 °F 30.27 in ENE 4.6 mph 8.1 mph 63 % 0.00 in
00:28 36.5 °F 25.5 °F 30.27 in ENE 4.0 mph 6.9 mph 64 % 0.00 in
00:33 36.5 °F 25.1 °F 30.27 in ENE 5.8 mph 9.2 mph 63 % 0.00 in
00:43 36.4 °F 24.2 °F 30.27 in ENE 8.0 mph 11.5 mph 61 % 0.00 in
00:48 36.5 °F 24.7 °F 30.27 in NE 5.9 mph 8.0 mph 62 % 0.00 in
00:53 36.4 °F 25.0 °F 30.27 in NE 5.3 mph 8.1 mph 63 % 0.00 in
00:59 36.4 °F 25.7 °F 30.27 in ENE 6.7 mph 8.1 mph 65 % 0.00 in
01:04 36.3 °F 25.7 °F 30.27 in ENE 6.1 mph 9.2 mph 65 % 0.00 in
01:09 36.2 °F 25.6 °F 30.27 in ENE 7.1 mph 15.0 mph 65 % 0.00 in
01:14 36.2 °F 25.6 °F 30.27 in ENE 7.3 mph 10.4 mph 65 % 0.00 in
01:19 36.2 °F 25.2 °F 30.27 in NNE 6.0 mph 11.5 mph 64 % 0.00 in
01:24 36.2 °F 25.6 °F 30.27 in ENE 5.6 mph 11.5 mph 65 % 0.00 in
01:29 36.2 °F 25.6 °F 30.27 in ENE 6.4 mph 9.2 mph 65 % 0.00 in
01:39 36.2 °F 26.3 °F 30.27 in ENE 6.5 mph 13.0 mph 67 % 0.00 in
01:44 36.2 °F 26.6 °F 30.27 in ENE 5.8 mph 10.4 mph 68 % 0.00 in
01:55 36.3 °F 27.8 °F 30.27 in ENE 7.3 mph 11.5 mph 71 % 0.00 in
02:00 36.3 °F 27.8 °F 30.27 in ENE 6.7 mph 12.7 mph 71 % 0.00 in
02:05 36.3 °F 28.1 °F 30.27 in ENE 8.4 mph 12.0 mph 72 % 0.00 in
02:10 36.3 °F 28.5 °F 30.27 in ENE 8.2 mph 11.5 mph 73 % 0.00 in
02:15 36.2 °F 28.4 °F 30.27 in NE 9.0 mph 11.5 mph 73 % 0.00 in
02:20 36.2 °F 28.4 °F 30.27 in NE 9.6 mph 11.5 mph 73 % 0.00 in
02:25 36.1 °F 28.6 °F 30.27 in ENE 7.2 mph 11.0 mph 74 % 0.00 in
02:30 36.1 °F 28.9 °F 30.27 in ENE 7.2 mph 9.2 mph 75 % 0.00 in
02:35 36.1 °F 29.3 °F 30.27 in ENE 8.9 mph 12.7 mph 76 % 0.00 in
02:41 36.0 °F 29.5 °F 30.27 in ENE 8.9 mph 11.5 mph 77 % 0.00 in
02:46 36.1 °F 29.9 °F 30.27 in ENE 9.6 mph 12.0 mph 78 % 0.00 in
02:51 36.0 °F 29.8 °F 30.27 in ENE 5.5 mph 11.5 mph 78 % 0.00 in
02:56 36.0 °F 30.1 °F 30.27 in ENE 8.3 mph 11.5 mph 79 % 0.00 in
03:01 36.0 °F 30.1 °F 30.27 in ENE 5.8 mph 11.0 mph 79 % 0.00 in
03:06 36.0 °F 30.4 °F 30.27 in East 6.9 mph 10.4 mph 80 % 0.00 in
03:11 36.0 °F 31.0 °F 30.27 in ENE 5.9 mph 8.1 mph 82 % 0.00 in
03:16 36.0 °F 31.0 °F 30.27 in ENE 5.8 mph 8.0 mph 82 % 0.00 in
03:21 36.0 °F 31.3 °F 30.27 in East 5.2 mph 8.1 mph 83 % 0.00 in
03:26 36.1 °F 31.4 °F 30.27 in East 6.0 mph 9.2 mph 83 % 0.00 in
03:32 36.1 °F 31.7 °F 30.27 in ENE 6.7 mph 9.2 mph 84 % 0.00 in
03:37 36.1 °F 31.7 °F 30.26 in ENE 6.1 mph 8.1 mph 84 % 0.00 in
03:42 36.1 °F 32.3 °F 30.27 in ENE 3.9 mph 5.0 mph 86 % 0.00 in
03:47 36.2 °F 32.7 °F 30.27 in NE 6.3 mph 9.2 mph 87 % 0.00 in
03:52 36.4 °F 33.2 °F 30.27 in ENE 6.1 mph 8.1 mph 88 % 0.00 in
03:57 36.6 °F 33.7 °F 30.27 in ENE 6.1 mph 9.2 mph 89 % 0.00 in
04:02 36.7 °F 33.8 °F 30.27 in ENE 6.7 mph 9.2 mph 89 % 0.00 in
04:07 36.8 °F 33.9 °F 30.27 in ENE 7.5 mph 10.4 mph 89 % 0.00 in
04:17 36.9 °F 34.2 °F 30.27 in East 9.8 mph 11.5 mph 90 % 0.00 in
04:23 37.0 °F 34.3 °F 30.27 in NE 7.9 mph 11.5 mph 90 % 0.00 in
04:28 37.1 °F 34.7 °F 30.27 in ENE 8.8 mph 12.7 mph 91 % 0.00 in
04:33 37.2 °F 34.8 °F 30.28 in ENE 7.4 mph 10.4 mph 91 % 0.00 in
04:38 37.4 °F 35.0 °F 30.28 in ENE 5.9 mph 9.2 mph 91 % 0.00 in
04:43 37.5 °F 35.4 °F 30.28 in ENE 7.9 mph 11.5 mph 92 % 0.00 in
04:48 37.6 °F 35.5 °F 30.28 in ENE 5.4 mph 10.4 mph 92 % 0.00 in
04:53 37.7 °F 35.6 °F 30.28 in ENE 3.9 mph 6.9 mph 92 % 0.00 in
05:03 38.0 °F 36.2 °F 30.28 in ENE 3.9 mph 5.0 mph 93 % 0.00 in
05:08 38.0 °F 36.2 °F 30.29 in East 6.5 mph 6.5 mph 93 % 0.00 in
05:14 38.1 °F 36.0 °F 30.29 in East 5.9 mph 8.1 mph 92 % 0.00 in
05:24 38.2 °F 36.1 °F 30.28 in ENE 5.6 mph 8.1 mph 92 % 0.00 in
05:29 38.3 °F 35.9 °F 30.28 in East 6.5 mph 9.2 mph 91 % 0.00 in
05:34 38.4 °F 36.0 °F 30.28 in ENE 7.4 mph 8.1 mph 91 % 0.00 in
05:44 38.4 °F 36.0 °F 30.28 in ENE 5.5 mph 8.1 mph 91 % 0.00 in
05:54 38.3 °F 35.9 °F 30.28 in ENE 5.4 mph 8.1 mph 91 % 0.00 in
05:59 38.3 °F 36.2 °F 30.28 in East 7.9 mph 10.4 mph 92 % 0.00 in
06:05 38.2 °F 36.1 °F 30.28 in ENE 9.3 mph 10.4 mph 92 % 0.00 in
06:10 38.2 °F 36.1 °F 30.28 in East 7.6 mph 12.7 mph 92 % 0.00 in
06:15 38.2 °F 36.1 °F 30.29 in ENE 6.2 mph 10.0 mph 92 % 0.00 in
06:20 38.3 °F 36.2 °F 30.30 in ENE 6.3 mph 10.4 mph 92 % 0.00 in
06:25 38.3 °F 35.9 °F 30.29 in ENE 7.4 mph 9.2 mph 91 % 0.00 in
06:30 38.3 °F 35.9 °F 30.29 in ENE 6.8 mph 8.1 mph 91 % 0.00 in
06:35 38.4 °F 36.0 °F 30.29 in ENE 6.4 mph 9.2 mph 91 % 0.00 in
06:40 38.4 °F 36.0 °F 30.30 in ENE 8.0 mph 10.4 mph 91 % 0.00 in
06:45 38.4 °F 36.0 °F 30.30 in ENE 7.0 mph 10.4 mph 91 % 0.00 in
06:50 38.4 °F 36.0 °F 30.30 in ENE 6.9 mph 9.2 mph 91 % 0.00 in
06:56 38.4 °F 36.0 °F 30.30 in ENE 6.8 mph 8.1 mph 91 % 0.00 in
07:01 38.5 °F 36.1 °F 30.30 in East 6.8 mph 8.1 mph 91 % 0.00 in
07:06 38.5 °F 35.8 °F 30.30 in ENE 5.6 mph 9.2 mph 90 % 0.00 in
07:11 38.6 °F 35.9 °F 30.31 in East 5.9 mph 9.2 mph 90 % 0.00 in
07:16 38.7 °F 35.7 °F 30.31 in ENE 8.4 mph 13.8 mph 89 % 0.00 in
07:21 38.8 °F 35.6 °F 30.31 in ESE 8.7 mph 11.0 mph 88 % 0.00 in
07:26 38.9 °F 35.4 °F 30.31 in East 7.9 mph 10.4 mph 87 % 0.00 in
07:31 38.9 °F 35.1 °F 30.31 in East 7.4 mph 10.4 mph 86 % 0.00 in
07:36 39.0 °F 34.9 °F 30.31 in ENE 8.7 mph 10.4 mph 85 % 0.00 in
07:41 39.0 °F 34.9 °F 30.31 in East 7.5 mph 8.1 mph 85 % 0.00 in
07:47 39.0 °F 34.9 °F 30.31 in East 7.0 mph 9.2 mph 85 % 0.00 in
07:52 39.0 °F 34.6 °F 30.31 in East 9.9 mph 16.1 mph 84 % 0.00 in
08:02 39.0 °F 34.3 °F 30.31 in East 9.0 mph 11.5 mph 83 % 0.00 in
08:12 39.2 °F 34.2 °F 30.31 in East 8.8 mph 12.7 mph 82 % 0.00 in
08:17 39.2 °F 34.2 °F 30.31 in ENE 8.5 mph 11.5 mph 82 % 0.00 in
08:22 39.3 °F 34.3 °F 30.31 in ENE 6.1 mph 8.1 mph 82 % 0.00 in
08:27 39.4 °F 34.7 °F 30.32 in East 6.3 mph 9.2 mph 83 % 0.00 in
08:32 39.2 °F 34.5 °F 30.32 in East 7.1 mph 10.4 mph 83 % 0.00 in
08:38 39.1 °F 34.4 °F 30.32 in ENE 8.4 mph 11.5 mph 83 % 0.00 in
08:43 39.0 °F 34.3 °F 30.32 in ENE 7.4 mph 9.2 mph 83 % 0.00 in
08:48 38.9 °F 34.2 °F 30.32 in ENE 8.1 mph 11.5 mph 83 % 0.00 in
08:53 38.9 °F 34.5 °F 30.32 in East 8.5 mph 10.4 mph 84 % 0.00 in
08:58 38.8 °F 34.1 °F 30.32 in ENE 8.9 mph 11.5 mph 83 % 0.00 in
09:08 38.9 °F 34.5 °F 30.32 in East 8.5 mph 10.4 mph 84 % 0.00 in
09:18 38.2 °F 33.8 °F 30.32 in ENE 10.6 mph 17.3 mph 84 % 0.00 in
09:23 37.9 °F 33.8 °F 30.32 in ENE 11.7 mph 13.8 mph 85 % 0.00 in
09:29 37.7 °F 33.9 °F 30.32 in NE 9.9 mph 13.8 mph 86 % 0.00 in
09:34 37.6 °F 33.8 °F 30.32 in East 10.6 mph 18.4 mph 86 % 0.00 in
09:39 37.7 °F 33.9 °F 30.32 in East 10.5 mph 16.1 mph 86 % 0.00 in
09:44 37.6 °F 33.8 °F 30.32 in ENE 13.5 mph 19.6 mph 86 % 0.00 in
09:49 37.6 °F 33.8 °F 30.32 in ENE 12.8 mph 17.3 mph 86 % 0.00 in
09:54 37.6 °F 33.8 °F 30.32 in ENE 11.6 mph 12.7 mph 86 % 0.00 in
09:59 37.7 °F 33.9 °F 30.32 in NE 11.5 mph 17.0 mph 86 % 0.00 in
10:04 37.7 °F 33.9 °F 30.32 in ENE 11.2 mph 16.1 mph 86 % 0.00 in
10:09 37.6 °F 33.8 °F 30.32 in ENE 12.2 mph 16.1 mph 86 % 0.00 in
10:14 37.6 °F 33.8 °F 30.32 in ENE 10.8 mph 15.0 mph 86 % 0.00 in
10:20 37.6 °F 34.1 °F 30.32 in ENE 11.3 mph 15.0 mph 87 % 0.00 in
10:25 37.6 °F 34.1 °F 30.32 in East 11.6 mph 16.1 mph 87 % 0.00 in
10:30 37.7 °F 34.2 °F 30.31 in ENE 10.2 mph 13.8 mph 87 % 0.00 in
10:35 37.7 °F 34.2 °F 30.31 in ENE 11.1 mph 15.0 mph 87 % 0.00 in
10:40 37.9 °F 34.7 °F 30.31 in ENE 9.3 mph 13.8 mph 88 % 0.00 in
10:45 37.9 °F 34.7 °F 30.30 in ENE 9.3 mph 13.8 mph 88 % 0.00 in
10:50 38.0 °F 34.8 °F 30.30 in East 9.0 mph 13.0 mph 88 % 0.00 in
10:55 38.2 °F 35.0 °F 30.31 in East 9.4 mph 13.8 mph 88 % 0.00 in
11:00 38.3 °F 35.1 °F 30.30 in ENE 7.9 mph 10.4 mph 88 % 0.00 in
11:05 38.5 °F 34.7 °F 30.30 in ENE 8.0 mph 11.5 mph 86 % 0.00 in
11:11 38.7 °F 34.6 °F 30.30 in East 8.8 mph 11.5 mph 85 % 0.00 in
11:16 38.9 °F 34.5 °F 30.30 in East 8.4 mph 11.5 mph 84 % 0.00 in
11:21 39.0 °F 34.6 °F 30.30 in ESE 7.2 mph 12.7 mph 84 % 0.00 in
11:26 39.1 °F 34.7 °F 30.30 in East 7.7 mph 10.4 mph 84 % 0.00 in
11:31 39.1 °F 34.7 °F 30.30 in ENE 8.0 mph 11.5 mph 84 % 0.00 in
11:41 39.1 °F 34.7 °F 30.30 in ENE 7.5 mph 12.7 mph 84 % 0.00 in
11:46 39.1 °F 34.7 °F 30.30 in ENE 9.8 mph 11.5 mph 84 % 0.00 in
11:56 39.0 °F 34.6 °F 30.29 in ENE 9.6 mph 11.5 mph 84 % 0.00 in
12:07 39.0 °F 34.6 °F 30.29 in ENE 10.1 mph 12.7 mph 84 % 0.00 in
12:12 39.0 °F 34.9 °F 30.29 in ENE 8.1 mph 11.5 mph 85 % 0.00 in
12:17 38.9 °F 35.1 °F 30.28 in ENE 8.7 mph 11.5 mph 86 % 0.00 in
12:22 38.8 °F 35.0 °F 30.28 in ENE 10.6 mph 15.0 mph 86 % 0.00 in
12:27 38.7 °F 35.2 °F 30.28 in ENE 9.8 mph 13.8 mph 87 % 0.00 in
12:32 38.6 °F 35.4 °F 30.28 in ENE 11.4 mph 15.0 mph 88 % 0.00 in
12:37 38.4 °F 35.2 °F 30.27 in ENE 10.5 mph 13.8 mph 88 % 0.00 in
12:42 38.3 °F 35.3 °F 30.27 in ENE 11.1 mph 13.8 mph 89 % 0.00 in
12:47 38.0 °F 35.0 °F 30.27 in ENE 9.1 mph 13.8 mph 89 % 0.00 in
12:53 37.9 °F 34.9 °F 30.27 in ENE 10.1 mph 14.0 mph 89 % 0.01 in
12:58 37.7 °F 35.0 °F 30.26 in ENE 10.7 mph 15.0 mph 90 % 0.01 in
13:03 37.7 °F 35.0 °F 30.26 in NE 10.4 mph 12.7 mph 90 % 0.01 in
13:08 37.6 °F 35.2 °F 30.26 in ENE 10.6 mph 16.0 mph 91 % 0.01 in
13:13 37.6 °F 34.9 °F 30.26 in ENE 10.8 mph 13.8 mph 90 % 0.01 in
13:18 37.6 °F 35.2 °F 30.26 in ENE 12.0 mph 16.0 mph 91 % 0.01 in
13:23 37.5 °F 35.1 °F 30.26 in ENE 11.7 mph 16.1 mph 91 % 0.01 in
13:28 37.5 °F 35.1 °F 30.26 in NE 11.5 mph 18.4 mph 91 % 0.01 in
13:33 37.5 °F 35.1 °F 30.26 in ENE 11.7 mph 14.0 mph 91 % 0.01 in
13:44 37.4 °F 35.0 °F 30.26 in ENE 11.7 mph 16.1 mph 91 % 0.01 in
13:49 37.4 °F 35.0 °F 30.26 in East 12.7 mph 16.1 mph 91 % 0.01 in
13:54 37.3 °F 34.9 °F 30.26 in East 11.9 mph 14.0 mph 91 % 0.00 in
13:59 37.3 °F 34.9 °F 30.26 in ENE 11.1 mph 15.0 mph 91 % 0.00 in
14:04 37.2 °F 34.8 °F 30.26 in East 12.5 mph 17.3 mph 91 % 0.00 in
14:09 37.1 °F 34.7 °F 30.26 in ENE 12.2 mph 16.1 mph 91 % 0.00 in
14:19 37.1 °F 35.0 °F 30.26 in East 12.5 mph 15.0 mph 92 % 0.00 in
14:24 37.1 °F 35.0 °F 30.26 in ENE 11.7 mph 19.6 mph 92 % 0.00 in
14:30 37.0 °F 34.9 °F 30.26 in ENE 13.3 mph 18.4 mph 92 % 0.00 in
14:35 37.0 °F 34.9 °F 30.26 in ENE 14.1 mph 21.9 mph 92 % 0.00 in
14:40 37.0 °F 34.9 °F 30.25 in East 15.4 mph 19.0 mph 92 % 0.00 in
14:45 37.0 °F 34.9 °F 30.25 in ENE 11.3 mph 15.0 mph 92 % 0.00 in
14:50 37.0 °F 34.9 °F 30.25 in ENE 12.6 mph 18.4 mph 92 % 0.00 in
14:55 37.0 °F 34.9 °F 30.25 in East 14.0 mph 19.6 mph 92 % 0.00 in
15:00 37.0 °F 34.9 °F 30.25 in ENE 13.4 mph 16.1 mph 92 % 0.00 in
15:05 37.0 °F 34.9 °F 30.25 in ENE 13.5 mph 19.6 mph 92 % 0.00 in
15:10 36.9 °F 35.1 °F 30.25 in East 14.3 mph 18.4 mph 93 % 0.00 in
15:15 36.8 °F 35.0 °F 30.25 in ENE 11.3 mph 16.1 mph 93 % 0.00 in
15:26 36.8 °F 35.0 °F 30.25 in ENE 13.8 mph 20.7 mph 93 % 0.00 in
15:31 36.8 °F 35.0 °F 30.25 in NE 13.6 mph 18.4 mph 93 % 0.01 in
15:36 36.7 °F 34.9 °F 30.25 in ENE 13.7 mph 19.6 mph 93 % 0.01 in
15:41 36.7 °F 34.9 °F 30.25 in East 16.3 mph 19.6 mph 93 % 0.01 in
15:46 36.7 °F 34.9 °F 30.25 in East 15.2 mph 18.4 mph 93 % 0.01 in
15:51 36.7 °F 34.9 °F 30.26 in ENE 13.2 mph 18.4 mph 93 % 0.01 in
15:56 36.6 °F 34.8 °F 30.25 in East 12.1 mph 19.6 mph 93 % 0.01 in
16:01 36.6 °F 34.8 °F 30.25 in ENE 13.4 mph 19.6 mph 93 % 0.01 in
16:06 36.5 °F 34.7 °F 30.25 in ENE 13.0 mph 17.3 mph 93 % 0.01 in
16:12 36.4 °F 34.6 °F 30.25 in East 13.3 mph 19.0 mph 93 % 0.01 in
16:17 36.3 °F 34.7 °F 30.25 in ENE 14.7 mph 26.5 mph 94 % 0.01 in
16:22 36.1 °F 34.5 °F 30.25 in East 11.7 mph 18.4 mph 94 % 0.01 in
16:27 35.9 °F 34.3 °F 30.26 in ENE 13.3 mph 18.4 mph 94 % 0.02 in
16:32 35.8 °F 34.2 °F 30.26 in ENE 14.4 mph 18.4 mph 94 % 0.01 in
16:37 35.6 °F 34.0 °F 30.26 in ENE 13.2 mph 18.4 mph 94 % 0.01 in
16:47 35.5 °F 34.2 °F 30.26 in ENE 13.0 mph 19.6 mph 95 % 0.01 in
16:52 35.4 °F 34.1 °F 30.25 in ENE 13.7 mph 17.0 mph 95 % 0.01 in
16:57 35.4 °F 34.1 °F 30.25 in ENE 14.4 mph 18.4 mph 95 % 0.01 in
17:03 35.3 °F 34.0 °F 30.25 in East 13.4 mph 21.9 mph 95 % 0.01 in
17:08 35.3 °F 34.0 °F 30.25 in NE 14.0 mph 19.6 mph 95 % 0.01 in
17:13 35.2 °F 33.9 °F 30.25 in East 11.8 mph 18.4 mph 95 % 0.01 in
17:18 35.2 °F 33.9 °F 30.25 in East 14.7 mph 20.7 mph 95 % 0.01 in
17:23 35.2 °F 33.9 °F 30.25 in NE 13.5 mph 20.7 mph 95 % 0.01 in
17:28 35.2 °F 33.9 °F 30.25 in ENE 11.5 mph 13.8 mph 95 % 0.00 in
17:33 35.2 °F 33.9 °F 30.24 in ENE 11.9 mph 15.0 mph 95 % 0.00 in
17:43 35.1 °F 33.8 °F 30.24 in ENE 12.3 mph 15.0 mph 95 % 0.00 in
17:54 35.2 °F 33.9 °F 30.25 in ENE 13.6 mph 19.6 mph 95 % 0.00 in
17:59 35.2 °F 33.9 °F 30.25 in East 11.9 mph 17.3 mph 95 % 0.00 in
18:04 35.2 °F 33.9 °F 30.25 in East 12.5 mph 18.4 mph 95 % 0.00 in
18:09 35.3 °F 34.0 °F 30.26 in ENE 11.0 mph 17.3 mph 95 % 0.00 in
18:14 35.3 °F 34.0 °F 30.26 in ENE 10.9 mph 15.0 mph 95 % 0.00 in
18:19 35.3 °F 34.0 °F 30.26 in East 13.3 mph 19.6 mph 95 % 0.00 in
18:24 35.3 °F 34.3 °F 30.26 in East 13.2 mph 15.0 mph 96 % 0.00 in
18:29 35.4 °F 34.4 °F 30.26 in East 11.9 mph 18.0 mph 96 % 0.00 in
18:34 35.4 °F 34.1 °F 30.26 in ENE 14.0 mph 19.0 mph 95 % 0.00 in
18:39 35.5 °F 34.2 °F 30.25 in ENE 15.2 mph 18.4 mph 95 % 0.00 in
18:45 35.5 °F 34.2 °F 30.25 in ENE 15.2 mph 16.1 mph 95 % 0.00 in
18:50 35.6 °F 34.6 °F 30.25 in ENE 13.7 mph 16.1 mph 96 % 0.00 in
18:55 35.6 °F 34.6 °F 30.26 in NE 13.2 mph 21.9 mph 96 % 0.00 in
19:00 35.6 °F 34.3 °F 30.25 in ENE 13.6 mph 20.7 mph 95 % 0.00 in
19:05 35.7 °F 34.4 °F 30.26 in East 14.0 mph 21.9 mph 95 % 0.00 in
19:10 35.7 °F 34.4 °F 30.26 in ENE 15.0 mph 20.7 mph 95 % 0.00 in
19:15 35.8 °F 34.5 °F 30.26 in East 13.4 mph 18.4 mph 95 % 0.00 in
19:20 35.8 °F 34.5 °F 30.26 in ENE 13.6 mph 20.7 mph 95 % 0.00 in
19:25 35.8 °F 34.5 °F 30.25 in ENE 13.7 mph 18.4 mph 95 % 0.00 in
19:30 35.8 °F 34.5 °F 30.25 in East 14.2 mph 18.4 mph 95 % 0.00 in
19:36 35.9 °F 34.6 °F 30.25 in NE 13.1 mph 22.0 mph 95 % 0.00 in
19:41 35.9 °F 34.6 °F 30.25 in ENE 15.3 mph 19.6 mph 95 % 0.00 in
19:46 35.9 °F 34.6 °F 30.25 in ENE 11.6 mph 19.6 mph 95 % 0.01 in
19:51 35.9 °F 34.6 °F 30.25 in East 15.3 mph 19.6 mph 95 % 0.01 in
19:56 35.9 °F 34.6 °F 30.24 in ENE 12.9 mph 23.0 mph 95 % 0.01 in
20:01 35.9 °F 34.6 °F 30.24 in East 14.5 mph 19.0 mph 95 % 0.01 in
20:06 35.8 °F 34.5 °F 30.24 in East 13.6 mph 16.1 mph 95 % 0.01 in
20:11 35.8 °F 34.5 °F 30.24 in East 15.0 mph 17.3 mph 95 % 0.02 in
20:16 35.8 °F 34.5 °F 30.24 in East 16.8 mph 25.3 mph 95 % 0.02 in
20:21 35.8 °F 34.5 °F 30.24 in ENE 14.3 mph 19.6 mph 95 % 0.02 in
20:27 35.8 °F 34.5 °F 30.24 in East 12.9 mph 18.4 mph 95 % 0.03 in
20:32 35.8 °F 34.5 °F 30.24 in ENE 15.9 mph 20.7 mph 95 % 0.03 in
20:37 35.7 °F 34.4 °F 30.23 in ENE 14.9 mph 18.4 mph 95 % 0.03 in
20:42 35.7 °F 34.4 °F 30.24 in East 13.4 mph 18.4 mph 95 % 0.03 in
20:47 35.7 °F 34.4 °F 30.24 in East 15.2 mph 19.6 mph 95 % 0.02 in
20:52 35.6 °F 34.3 °F 30.24 in ENE 12.9 mph 16.1 mph 95 % 0.02 in
20:57 35.6 °F 34.3 °F 30.23 in ENE 11.6 mph 15.0 mph 95 % 0.03 in
21:02 35.6 °F 34.3 °F 30.23 in ENE 13.5 mph 19.6 mph 95 % 0.03 in
21:07 35.5 °F 34.2 °F 30.23 in East 13.9 mph 19.0 mph 95 % 0.04 in
21:12 35.5 °F 34.2 °F 30.23 in East 14.0 mph 19.6 mph 95 % 0.03 in
21:18 35.5 °F 34.2 °F 30.23 in East 13.7 mph 18.4 mph 95 % 0.04 in
21:23 35.5 °F 34.2 °F 30.23 in ENE 13.4 mph 19.6 mph 95 % 0.03 in
21:28 35.6 °F 34.3 °F 30.23 in ENE 14.1 mph 18.4 mph 95 % 0.03 in
21:33 35.6 °F 34.3 °F 30.23 in East 11.7 mph 17.0 mph 95 % 0.03 in
21:43 35.6 °F 34.3 °F 30.23 in East 13.8 mph 19.6 mph 95 % 0.03 in
21:48 35.7 °F 34.4 °F 30.23 in NE 12.3 mph 16.1 mph 95 % 0.03 in
21:53 35.7 °F 34.4 °F 30.22 in ENE 13.3 mph 16.1 mph 95 % 0.03 in
22:03 35.8 °F 34.5 °F 30.22 in East 13.3 mph 16.0 mph 95 % 0.02 in
22:14 35.9 °F 34.6 °F 30.22 in ENE 13.2 mph 18.4 mph 95 % 0.01 in
22:19 35.9 °F 34.6 °F 30.21 in ENE 12.4 mph 17.3 mph 95 % 0.00 in
22:24 36.0 °F 34.7 °F 30.21 in East 12.4 mph 16.1 mph 95 % 0.00 in
22:29 36.0 °F 34.7 °F 30.21 in East 11.3 mph 13.8 mph 95 % 0.00 in
22:34 36.0 °F 34.7 °F 30.21 in East 12.1 mph 14.0 mph 95 % 0.00 in
22:39 35.9 °F 34.6 °F 30.20 in East 14.0 mph 18.4 mph 95 % 0.00 in
22:44 36.0 °F 34.7 °F 30.20 in ENE 15.2 mph 18.4 mph 95 % 0.00 in
22:49 36.1 °F 34.8 °F 30.20 in ENE 12.2 mph 15.0 mph 95 % 0.00 in
22:54 36.2 °F 34.9 °F 30.20 in East 12.2 mph 13.8 mph 95 % 0.00 in
23:00 36.2 °F 34.9 °F 30.20 in East 13.4 mph 17.3 mph 95 % 0.00 in
23:05 36.3 °F 35.0 °F 30.19 in ENE 11.0 mph 16.0 mph 95 % 0.00 in
23:10 36.2 °F 34.9 °F 30.19 in ENE 12.7 mph 15.0 mph 95 % 0.00 in
23:15 36.2 °F 34.9 °F 30.18 in East 12.2 mph 17.3 mph 95 % 0.01 in
23:20 36.2 °F 34.9 °F 30.18 in ENE 12.9 mph 15.0 mph 95 % 0.01 in
23:25 36.2 °F 34.9 °F 30.18 in East 13.0 mph 16.1 mph 95 % 0.01 in
23:30 36.3 °F 35.3 °F 30.18 in ENE 11.7 mph 18.4 mph 96 % 0.01 in
23:35 36.4 °F 35.4 °F 30.18 in East 12.5 mph 20.0 mph 96 % 0.01 in
23:45 36.4 °F 35.4 °F 30.19 in East 11.9 mph 17.3 mph 96 % 0.01 in
23:51 36.5 °F 35.5 °F 30.19 in ENE 11.4 mph 17.3 mph 96 % 0.01 in
Crab Meadow Weather
Compliments of Weather Underground - 2.75 mb

Script developed by  Jim McMurry - jmcmurry@mwt.net Adapted for the template by  Wim van der Kuil - Leuven-Template.eu

Clouds: Mostly Cloudy or Considerable Cloudiness indicate about 75 percent cloud coverage.